Theta_e
295 294 294 294 294 294 294 294 294 294 294 293 293 293 293 293 294 294 295 296 296 297 297 298 298 298 299 299 298 298 298 298 298 299 298 299 299 299 299 299 300 300
293 292 292 292 292 292 291 291 291 291 291 290 290 290 290 290 291 291 292 292 293 293 294 295 295 296 296 296 297 298 298 298 298 298 297 298 298 298 298 298 298 299
291 291 291 291 291 290 290 290 290 290 290 289 289 289 289 289 289 289 290 290 290 290 291 291 292 292 293 293 293 294 295 296 297 297 297 297 297 297 297 297 298 298
290 290 290 290 290 290 289 289 289 289 289 289 289 289 289 289 289 289 289 289 289 289 289 289 290 290 290 291 291 291 291 292 292 294 295 296 296 296 296 296 296 297
290 290 289 289 289 289 289 289 289 289 289 289 289 289 289 289 289 289 289 289 289 289 289 289 289 289 289 289 289 289 290 289 290 290 291 292 293 294 295 295 296 296
290 290 290 290 290 290 290 290 290 289 289 289 289 289 289 289 289 289 289 289 289 289 289 289 289 289 289 289 289 289 289 289 289 289 289 289 289 290 290 292 293 294
290 290 290 290 290 289 289 289 289 289 289 289 289 289 289 289 289 289 289 289 289 289 289 289 289 289 289 289 289 289 288 288 288 288 288 288 288 289 289 288 289 290
290 289 289 289 289 289 289 289 289 289 289 289 289 289 289 288 288 288 288 288 289 289 289 289 289 289 289 289 289 289 289 289 289 288 288 288 288 288 288 288 288 288
289 289 289 289 289 289 288 288 288 288 288 288 288 288 288 287 287 287 287 287 288 288 288 288 288 288 288 288 288 288 288 288 288 288 288 288 288 288 288 288 288 288
289 289 289 289 288 288 288 288 288 288 288 287 287 287 287 286 287 287 287 287 287 287 287 287 287 287 287 287 287 287 287 287 287 287 287 288 288 288 288 288 288 288
289 289 289 289 288 288 288 288 287 287 287 287 286 286 286 286 286 286 286 286 286 286 286 286 287 287 287 287 287 287 287 287 287 287 287 287 287 287 287 287 287 287
289 289 289 289 288 288 288 287 287 287 286 286 286 286 286 286 286 286 286 286 286 286 286 286 286 286 286 286 286 286 286 286 286 286 286 286 286 286 286 286 286 287
289 289 289 288 288 288 287 287 286 286 286 286 286 286 286 286 285 286 286 285 286 286 285 285 285 285 285 285 285 285 285 285 285 285 286 286 286 286 286 286 286 286
289 289 289 288 288 287 287 286 286 285 285 285 285 285 285 285 285 285 285 285 285 285 285 285 285 285 285 284 284 284 283 283 283 284 284 284 285 285 285 285 286 286
289 289 288 288 287 287 286 286 285 285 285 285 285 285 284 285 284 284 284 284 284 284 284 284 284 284 284 284 283 283 283 282 282 282 282 283 283 284 284 285 285 285
288 288 288 287 286 286 285 285 285 285 284 284 284 284 284 284 284 284 284 284 284 284 284 284 284 284 283 282 282 281 281 281 281 281 281 281 281 282 282 283 284 284
287 287 286 286 285 285 285 284 284 284 284 284 284 284 284 284 284 284 284 283 283 283 283 283 283 282 282 281 281 280 279 279 279 280 280 281 281 281 282 282 282 282
285 285 284 284 284 284 284 284 284 284 284 284 284 284 284 284 284 283 283 282 282 282 282 282 282 281 280 279 279 279 278 277 278 278 279 280 280 281 281 281 281 281
284 284 284 283 283 283 283 283 283 283 283 283 284 284 283 283 283 283 283 282 281 281 282 282 281 280 279 278 277 276 275 275 276 277 277 278 279 279 280 280 281 280
283 283 283 283 283 282 283 283 283 283 283 283 283 283 283 283 282 282 282 282 281 281 281 281 280 279 278 277 275 274 274 274 274 275 276 276 277 278 278 279 279 279
283 283 282 282 282 282 282 282 282 282 282 282 282 282 282 282 282 281 281 281 280 279 279 279 278 276 275 275 274 274 274 273 273 274 274 275 275 276 276 276 277 277
282 282 282 282 282 282 282 282 282 282 282 281 281 281 281 281 281 280 279 279 278 277 277 277 276 274 273 273 272 272 272 272 272 272 273 274 274 274 274 275 275 275
281 281 282 282 282 282 282 282 281 281 281 280 281 281 281 280 279 279 277 276 276 275 275 275 275 273 272 272 272 271 271 270 270 271 271 272 272 273 273 273 273 273
281 281 281 281 281 281 281 281 281 280 280 280 280 280 280 278 278 277 276 275 274 274 273 273 273 272 271 271 271 271 270 269 269 269 269 269 270 270 271 271 271 272
280 280 280 280 280 280 280 280 280 280 279 279 278 278 278 277 276 276 275 274 273 273 272 272 272 272 271 271 271 270 269 268 268 268 268 268 268 269 269 269 270 271
280 280 279 279 279 279 279 279 279 279 278 278 278 277 276 276 275 274 274 273 272 272 272 271 271 271 271 270 270 270 269 268 267 267 268 268 268 268 268 269 269 270
Wind_Speed
13 13 14 14 14 15 14 14 13 13 13 13 14 14 14 14 14 13 13 13 13 13 13 13 14 14 15 15 16 16 16 17 19 20 23 24 26 27 28 29 30 32
12 13 13 13 14 14 14 14 14 13 13 14 14 14 14 14 14 14 14 14 14 14 14 14 15 15 16 16 17 17 17 17 18 19 21 23 24 27 28 29 30 31
12 12 12 12 12 13 13 13 13 13 14 14 15 15 16 16 16 15 15 15 15 15 15 15 15 16 17 18 18 18 18 18 18 19 20 21 22 25 26 28 29 30
11 12 12 12 12 12 12 12 13 13 13 14 15 16 17 17 18 17 17 17 17 18 18 17 17 17 18 19 20 20 21 21 20 20 21 21 21 23 24 25 28 29
8 9 10 10 11 11 12 12 13 14 14 15 16 17 17 18 19 19 19 20 20 21 21 21 21 20 20 21 21 22 23 23 23 23 24 23 22 23 23 24 26 27
8 8 9 10 10 11 12 13 14 15 15 16 17 18 18 19 20 20 21 21 22 23 24 24 24 24 24 25 24 24 25 25 25 26 26 27 26 25 25 25 26 26
11 12 12 13 14 14 14 15 15 16 16 17 18 19 20 20 21 21 22 23 23 24 25 26 27 27 27 28 28 28 28 27 28 28 29 29 29 29 28 27 28 28
15 16 18 19 19 19 19 19 19 19 19 20 19 20 21 22 22 23 23 24 25 25 26 27 28 28 29 30 31 31 31 31 30 31 31 31 32 32 32 31 32 32
19 21 22 23 24 24 24 24 24 25 25 26 25 24 24 24 24 25 25 26 27 27 28 28 29 30 30 31 32 33 34 34 34 34 34 34 34 34 33 33 35 36
22 23 25 26 27 27 27 27 27 28 28 29 30 30 30 30 30 30 30 31 31 31 31 32 32 33 34 34 35 35 36 36 36 36 37 37 37 37 36 35 35 36
22 23 25 27 28 29 30 30 30 29 29 30 31 32 33 34 34 35 36 37 37 38 37 37 37 37 38 38 38 39 40 40 40 40 39 39 39 40 40 39 39 38
22 24 26 28 30 32 32 32 32 32 31 32 33 33 34 35 36 37 38 40 41 42 43 44 44 44 44 44 44 44 44 45 45 44 44 44 43 43 42 42 42 42
24 26 29 31 33 34 33 33 32 32 33 34 35 36 37 39 39 40 41 41 43 44 45 46 47 48 49 50 50 49 48 48 49 49 49 48 48 47 46 46 45 45
27 29 32 34 34 34 34 34 33 34 35 36 38 39 40 41 43 44 45 45 46 46 47 47 48 49 50 50 51 50 49 49 49 50 50 51 51 51 51 50 50 49
31 33 35 36 35 35 35 35 36 38 39 40 41 42 43 44 45 46 47 48 48 48 49 49 49 50 50 49 48 48 48 48 48 47 47 48 50 51 52 53 53 53
33 34 35 34 34 34 35 37 39 40 41 43 43 44 45 46 46 47 47 48 49 49 49 49 49 50 49 48 46 45 45 45 45 46 46 46 47 49 51 52 52 53
32 31 31 31 32 34 36 38 39 40 41 42 43 44 44 44 45 46 46 46 47 48 49 49 49 49 49 48 47 45 43 41 42 44 46 47 48 49 51 51 51 51
29 30 30 32 34 36 37 38 39 40 41 42 43 43 44 44 44 45 45 46 46 48 49 50 50 51 50 50 49 48 45 43 43 45 47 49 50 51 52 53 52 52
29 31 33 35 36 37 38 39 39 40 41 42 43 44 44 45 45 46 46 47 48 49 51 51 52 52 51 51 49 47 44 41 41 45 48 50 51 52 53 54 54 54
32 34 35 36 37 38 39 39 40 41 41 42 43 44 45 46 47 48 49 49 50 51 51 52 52 51 49 48 46 45 43 41 41 44 48 50 51 52 52 53 53 52
34 35 36 37 37 38 39 39 40 41 41 42 43 45 46 47 48 49 50 50 50 50 51 52 50 46 45 44 43 42 42 41 42 45 47 49 51 51 50 51 51 51
34 35 36 37 37 38 39 39 40 41 42 43 45 46 47 48 49 49 50 50 50 48 48 50 47 43 41 40 39 39 38 38 40 43 45 47 49 49 49 50 50 50
34 35 36 36 37 37 38 39 40 41 42 43 45 47 48 48 49 49 48 48 48 46 45 47 47 42 39 38 36 35 33 33 36 39 41 44 46 46 45 45 46 45
33 34 34 35 36 36 38 39 40 41 42 43 45 47 48 48 48 48 47 45 45 44 43 44 45 41 37 36 34 31 29 29 32 35 37 39 40 41 40 39 39 38
32 32 33 34 35 36 37 39 40 42 43 44 45 46 47 47 46 46 46 43 42 41 40 40 41 39 35 33 32 29 26 27 30 33 35 35 36 37 37 35 34 34
30 31 32 33 34 36 38 39 41 42 43 44 44 44 45 45 43 42 43 42 39 38 37 36 36 36 33 30 29 26 23 25 28 31 34 35 36 37 38 37 36 36
Wind_Direction
39 37 35 34 34 34 32 29 25 20 15 13 12 12 13 11 10 8 6 3 358 353 349 346 342 339 336 331 324 316 306 295 286 278 272 269 268 267 265 263 260 260
32 30 28 27 27 26 25 22 17 13 10 8 6 4 4 3 1 360 359 356 353 349 345 341 338 336 334 332 330 327 322 316 309 298 287 279 274 270 269 267 265 262
24 22 20 19 18 16 14 11 5 1 359 356 353 352 352 352 352 351 350 348 346 344 340 337 332 330 329 328 328 327 324 322 320 314 306 299 291 282 276 272 269 267
13 11 9 8 7 5 2 358 352 350 348 344 341 340 340 339 338 338 339 338 337 336 335 333 330 327 324 322 321 321 321 321 320 316 312 311 307 300 293 286 279 273
0 355 354 352 350 349 345 341 339 338 337 335 334 332 331 331 329 328 328 327 327 326 326 326 325 325 323 319 317 315 315 315 316 315 313 312 311 308 306 301 295 289
345 340 340 337 333 332 330 328 328 328 327 326 326 326 324 324 324 323 322 321 320 320 319 318 318 319 319 318 316 314 313 311 311 311 310 310 309 308 308 307 304 301
340 338 336 334 332 330 328 327 326 325 324 322 322 323 322 321 321 320 319 317 315 315 314 314 314 314 314 313 312 312 311 310 310 308 306 306 305 305 305 306 305 303
338 336 334 333 332 331 330 329 328 326 325 322 321 320 320 321 320 318 317 315 313 312 311 311 311 311 311 310 309 308 307 307 307 307 306 304 303 302 302 302 302 302
334 333 332 332 332 331 330 330 329 329 329 327 326 324 322 321 320 318 317 314 313 312 310 310 309 308 308 307 306 306 305 305 304 304 303 303 302 301 300 300 298 298
328 329 329 329 328 326 325 326 326 326 327 327 327 326 324 323 321 320 318 316 314 312 311 309 308 307 306 305 304 304 304 303 302 301 300 300 299 299 298 298 296 295
319 321 322 323 322 321 321 322 323 323 323 323 323 321 321 320 320 320 319 318 317 315 313 311 309 308 306 304 304 304 303 302 301 299 298 296 295 295 295 295 294 292
310 312 315 316 317 317 317 318 320 320 320 319 318 317 316 316 316 315 315 315 314 314 313 311 310 308 306 304 303 302 300 299 298 296 295 294 292 291 290 290 289 289
306 308 310 312 312 313 313 314 315 315 315 314 314 314 314 314 313 312 311 310 309 308 307 306 306 305 304 304 303 301 300 297 295 294 292 291 290 288 287 286 285 285
301 302 305 306 308 309 310 310 311 310 311 311 311 312 312 311 311 310 309 308 306 305 304 302 301 300 299 299 300 300 300 299 297 295 293 291 288 287 285 284 283 282
297 299 301 303 305 307 308 309 309 310 311 311 311 310 310 309 308 307 307 306 305 304 302 301 300 299 298 298 298 297 297 297 297 296 295 293 290 287 285 283 281 281
294 296 298 300 302 304 305 307 308 308 309 309 309 308 308 308 307 306 305 305 304 303 301 300 299 299 298 298 297 296 294 293 293 292 291 290 289 288 286 284 282 280
292 293 295 297 299 301 302 304 304 305 305 306 306 306 306 305 305 304 304 303 302 301 301 300 299 298 297 295 294 292 290 289 289 287 286 285 285 284 284 284 283 281
295 297 298 300 301 302 303 304 304 305 305 305 305 305 305 305 304 304 303 302 301 300 299 298 297 296 295 294 293 291 290 288 286 284 282 281 280 280 280 281 281 281
301 302 304 305 305 306 306 306 307 307 307 307 308 307 307 306 306 305 304 303 302 300 299 298 297 296 295 295 294 293 291 289 285 282 280 278 277 276 277 277 278 279
305 306 307 307 308 308 309 309 310 310 310 310 309 309 308 307 306 306 305 304 302 301 300 298 298 297 297 296 295 294 292 289 285 281 279 277 276 275 274 274 274 275
308 309 309 309 310 310 310 311 311 311 311 311 310 309 308 308 308 307 306 305 304 303 302 300 300 300 299 298 297 296 294 292 289 285 281 279 277 275 274 273 272 272
310 310 310 310 310 310 311 311 311 311 311 311 310 310 309 309 309 308 308 307 306 306 305 303 302 303 303 302 301 300 298 295 292 289 286 284 282 279 277 275 273 273
311 310 311 310 310 311 311 311 311 311 312 312 311 311 311 311 311 310 309 309 308 308 307 305 304 306 307 306 304 302 300 297 294 291 289 288 287 286 284 282 279 277
311 311 311 310 310 311 311 311 311 312 313 313 313 313 313 313 312 311 310 310 309 309 309 307 306 308 309 307 305 304 302 298 295 294 292 292 292 292 291 290 288 286
312 310 309 309 310 311 312 312 313 314 315 315 315 314 314 313 312 311 311 310 310 309 309 308 307 307 308 308 306 305 303 299 297 296 295 295 296 296 296 295 293 292
310 309 309 311 312 313 313 314 316 317 317 317 316 315 314 313 313 312 310 309 310 310 309 309 309 308 309 309 307 306 304 301 298 297 296 296 296 297 297 298 299 298